Time,TemperatureF,DewpointF,PressureIn,WindDirection,WindDirectionDegrees,WindSpeedMPH,WindSpeedGustMPH,Humidity,HourlyPrecipIn,Conditions,Clouds,dailyrainin,SolarRadiationWatts/m^2,SoftwareType,DateUTC
2013-07-21 00:00:00,68.0,63.0,-100.00,SE,135,0.0,-999.0,85,-99.99,,,-99.99,0.000000,,2013-07-21 04:00:00,
2013-07-21 00:43:00,68.0,63.0,-100.00,SE,135,0.0,-999.0,85,-99.99,,,-99.99,0.000000,,2013-07-21 04:43:00,
2013-07-21 00:53:00,68.0,63.0,-100.00,SE,135,0.0,-999.0,85,-99.99,,,-99.99,0.000000,,2013-07-21 04:53:00,
2013-07-21 01:00:00,68.0,63.0,-100.00,ESE,112,0.0,-999.0,83,-99.99,,,-99.99,0.000000,,2013-07-21 05:00:00,
2013-07-21 01:32:00,68.0,63.0,-100.00,ESE,112,0.0,-999.0,83,-99.99,,,-99.99,0.000000,,2013-07-21 05:32:00,
2013-07-21 01:42:00,68.0,63.0,-100.00,ESE,112,0.0,-999.0,83,-99.99,,,-99.99,0.000000,,2013-07-21 05:42:00,
2013-07-21 01:52:00,68.0,63.0,-100.00,ESE,112,0.0,-999.0,83,-99.99,,,-99.99,0.000000,,2013-07-21 05:52:00,
2013-07-21 02:00:00,67.0,64.0,-100.00,SSE,157,0.0,-999.0,90,-99.99,,,-99.99,0.000000,,2013-07-21 06:00:00,
2013-07-21 02:43:00,67.0,64.0,-100.00,SSE,157,0.0,-999.0,90,-99.99,,,-99.99,0.000000,,2013-07-21 06:43:00,
2013-07-21 02:53:00,67.0,64.0,-100.00,SSE,157,0.0,-999.0,90,-99.99,,,-99.99,0.000000,,2013-07-21 06:53:00,
2013-07-21 03:00:00,67.0,64.0,-100.00,ENE,67,0.0,-999.0,91,-99.99,,,-99.99,0.000000,,2013-07-21 07:00:00,
2013-07-21 03:43:00,67.0,64.0,-100.00,ENE,67,0.0,-999.0,91,-99.99,,,-99.99,0.000000,,2013-07-21 07:43:00,
2013-07-21 03:53:00,67.0,64.0,-100.00,ENE,67,0.0,-999.0,91,-99.99,,,-99.99,0.000000,,2013-07-21 07:53:00,
2013-07-21 04:00:00,68.0,63.0,-100.00,NE,45,4.0,-999.0,85,-99.99,,,-99.99,0.000000,,2013-07-21 08:00:00,
2013-07-21 04:43:00,68.0,63.0,-100.00,NE,45,4.0,-999.0,85,-99.99,,,-99.99,0.000000,,2013-07-21 08:43:00,
2013-07-21 04:52:00,68.0,63.0,-100.00,NE,45,4.0,-999.0,85,-99.99,,,-99.99,0.000000,,2013-07-21 08:52:00,
2013-07-21 05:00:00,67.0,63.0,-100.00,NE,45,3.0,-999.0,86,-99.99,,,-99.99,0.000000,,2013-07-21 09:00:00,
2013-07-21 05:32:00,67.0,63.0,-100.00,NE,45,3.0,-999.0,86,-99.99,,,-99.99,0.000000,,2013-07-21 09:32:00,
2013-07-21 05:42:00,67.0,63.0,-100.00,NE,45,3.0,-999.0,86,-99.99,,,-99.99,0.000000,,2013-07-21 09:42:00,
2013-07-21 05:52:00,67.0,63.0,-100.00,NE,45,3.0,-999.0,86,-99.99,,,-99.99,0.000000,,2013-07-21 09:52:00,
2013-07-21 06:00:00,66.0,62.0,-100.00,NE,45,3.0,-999.0,87,-99.99,,,-99.99,0.000000,,2013-07-21 10:00:00,
2013-07-21 06:32:00,66.0,62.0,-100.00,NE,45,3.0,-999.0,87,-99.99,,,-99.99,0.000000,,2013-07-21 10:32:00,
2013-07-21 06:43:00,66.0,62.0,-100.00,NE,45,3.0,-999.0,87,-99.99,,,-99.99,0.000000,,2013-07-21 10:43:00,
2013-07-21 06:52:00,66.0,62.0,-100.00,NE,45,3.0,-999.0,87,-99.99,,,-99.99,0.000000,,2013-07-21 10:52:00,
2013-07-21 07:00:00,63.0,61.0,-100.00,ENE,67,1.0,-999.0,92,-99.99,,,-99.99,10.440000,,2013-07-21 11:00:00,
2013-07-21 07:33:00,63.0,61.0,-100.00,ENE,67,1.0,-999.0,92,-99.99,,,-99.99,10.440000,,2013-07-21 11:33:00,
2013-07-21 07:43:00,63.0,61.0,-100.00,ENE,67,1.0,-999.0,92,-99.99,,,-99.99,10.440000,,2013-07-21 11:43:00,
2013-07-21 07:52:00,63.0,61.0,-100.00,ENE,67,1.0,-999.0,92,-99.99,,,-99.99,10.440000,,2013-07-21 11:52:00,
2013-07-21 08:00:00,65.0,62.0,-100.00,NE,45,3.0,-999.0,89,-99.99,,,-99.99,78.879997,,2013-07-21 12:00:00,
2013-07-21 08:32:00,65.0,62.0,-100.00,NE,45,3.0,-999.0,89,-99.99,,,-99.99,78.879997,,2013-07-21 12:32:00,
2013-07-21 08:43:00,65.0,62.0,-100.00,NE,45,3.0,-999.0,89,-99.99,,,-99.99,78.879997,,2013-07-21 12:43:00,
2013-07-21 08:53:00,65.0,62.0,-100.00,NE,45,3.0,-999.0,89,-99.99,,,-99.99,78.879997,,2013-07-21 12:53:00,
2013-07-21 09:00:00,68.0,63.0,-100.00,ENE,67,4.0,-999.0,84,-99.99,,,-99.99,247.080002,,2013-07-21 13:00:00,
2013-07-21 09:33:00,68.0,63.0,-100.00,ENE,67,4.0,-999.0,84,-99.99,,,-99.99,247.080002,,2013-07-21 13:33:00,
2013-07-21 09:43:00,68.0,63.0,-100.00,ENE,67,4.0,-999.0,84,-99.99,,,-99.99,247.080002,,2013-07-21 13:43:00,
2013-07-21 09:53:00,68.0,63.0,-100.00,ENE,67,4.0,-999.0,84,-99.99,,,-99.99,247.080002,,2013-07-21 13:53:00,
2013-07-21 10:00:00,71.0,65.0,-100.00,ENE,67,4.0,-999.0,81,-99.99,,,-99.99,364.239990,,2013-07-21 14:00:00,
2013-07-21 10:32:00,71.0,65.0,-100.00,ENE,67,4.0,-999.0,81,-99.99,,,-99.99,364.239990,,2013-07-21 14:32:00,
2013-07-21 10:43:00,71.0,65.0,-100.00,ENE,67,4.0,-999.0,81,-99.99,,,-99.99,364.239990,,2013-07-21 14:43:00,
2013-07-21 10:53:00,71.0,65.0,-100.00,ENE,67,4.0,-999.0,81,-99.99,,,-99.99,364.239990,,2013-07-21 14:53:00,
2013-07-21 11:00:00,74.0,66.0,-100.00,East,90,3.0,-999.0,76,-99.99,,,-99.99,483.720001,,2013-07-21 15:00:00,
2013-07-21 11:43:00,74.0,66.0,-100.00,East,90,3.0,-999.0,76,-99.99,,,-99.99,483.720001,,2013-07-21 15:43:00,
2013-07-21 11:53:00,74.0,66.0,-100.00,East,90,3.0,-999.0,76,-99.99,,,-99.99,483.720001,,2013-07-21 15:53:00,
2013-07-21 12:00:00,78.0,68.0,-100.00,ESE,112,4.0,-999.0,71,-99.99,,,-99.99,649.599976,,2013-07-21 16:00:00,
2013-07-21 12:32:00,78.0,68.0,-100.00,ESE,112,4.0,-999.0,71,-99.99,,,-99.99,649.599976,,2013-07-21 16:32:00,
2013-07-21 12:43:00,78.0,68.0,-100.00,ESE,112,4.0,-999.0,71,-99.99,,,-99.99,649.599976,,2013-07-21 16:43:00,
2013-07-21 12:52:00,78.0,68.0,-100.00,ESE,112,4.0,-999.0,71,-99.99,,,-99.99,649.599976,,2013-07-21 16:52:00,
2013-07-21 13:00:00,80.0,67.0,-100.00,ESE,112,4.0,-999.0,65,-99.99,,,-99.99,716.880005,,2013-07-21 17:00:00,
2013-07-21 13:33:00,80.0,67.0,-100.00,ESE,112,4.0,-999.0,65,-99.99,,,-99.99,716.880005,,2013-07-21 17:33:00,
2013-07-21 13:43:00,80.0,67.0,-100.00,ESE,112,4.0,-999.0,65,-99.99,,,-99.99,716.880005,,2013-07-21 17:43:00,
2013-07-21 13:53:00,80.0,67.0,-100.00,ESE,112,4.0,-999.0,65,-99.99,,,-99.99,716.880005,,2013-07-21 17:53:00,
2013-07-21 14:00:00,82.0,66.0,-100.00,SSE,157,4.0,-999.0,59,-99.99,,,-99.99,704.119995,,2013-07-21 18:00:00,
2013-07-21 14:43:00,82.0,66.0,-100.00,SSE,157,4.0,-999.0,59,-99.99,,,-99.99,704.119995,,2013-07-21 18:43:00,
2013-07-21 14:52:00,82.0,66.0,-100.00,SSE,157,4.0,-999.0,59,-99.99,,,-99.99,704.119995,,2013-07-21 18:52:00,
2013-07-21 15:00:00,83.0,66.0,-100.00,SSE,157,3.0,-999.0,56,-99.99,,,-99.99,683.239990,,2013-07-21 19:00:00,
2013-07-21 15:32:00,83.0,66.0,-100.00,SSE,157,3.0,-999.0,56,-99.99,,,-99.99,683.239990,,2013-07-21 19:32:00,
2013-07-21 15:42:00,83.0,66.0,-100.00,SSE,157,3.0,-999.0,56,-99.99,,,-99.99,683.239990,,2013-07-21 19:42:00,
2013-07-21 15:52:00,83.0,66.0,-100.00,SSE,157,3.0,-999.0,56,-99.99,,,-99.99,683.239990,,2013-07-21 19:52:00,
2013-07-21 16:00:00,84.0,67.0,-100.00,East,90,4.0,-999.0,55,-99.99,,,-99.99,846.799988,,2013-07-21 20:00:00,
2013-07-21 16:32:00,84.0,67.0,-100.00,East,90,4.0,-999.0,55,-99.99,,,-99.99,846.799988,,2013-07-21 20:32:00,
2013-07-21 16:43:00,84.0,67.0,-100.00,East,90,4.0,-999.0,55,-99.99,,,-99.99,846.799988,,2013-07-21 20:43:00,
2013-07-21 16:52:00,84.0,67.0,-100.00,East,90,4.0,-999.0,55,-99.99,,,-99.99,846.799988,,2013-07-21 20:52:00,
2013-07-21 17:00:00,83.0,67.0,-100.00,East,90,5.0,-999.0,57,-99.99,,,-99.99,528.960022,,2013-07-21 21:00:00,
2013-07-21 17:43:00,83.0,67.0,-100.00,East,90,5.0,-999.0,57,-99.99,,,-99.99,528.960022,,2013-07-21 21:43:00,
2013-07-21 17:52:00,83.0,67.0,-100.00,East,90,5.0,-999.0,57,-99.99,,,-99.99,528.960022,,2013-07-21 21:52:00,
2013-07-21 18:00:00,83.0,67.0,-100.00,ENE,67,4.0,-999.0,58,-99.99,,,-99.99,322.480011,,2013-07-21 22:00:00,
2013-07-21 18:43:00,83.0,67.0,-100.00,ENE,67,4.0,-999.0,58,-99.99,,,-99.99,322.480011,,2013-07-21 22:43:00,
2013-07-21 18:52:00,83.0,67.0,-100.00,ENE,67,4.0,-999.0,58,-99.99,,,-99.99,322.480011,,2013-07-21 22:52:00,
2013-07-21 19:00:00,82.0,67.0,-100.00,East,90,4.0,-999.0,61,-99.99,,,-99.99,215.759995,,2013-07-21 23:00:00,
2013-07-21 19:32:00,82.0,67.0,-100.00,East,90,4.0,-999.0,61,-99.99,,,-99.99,215.759995,,2013-07-21 23:32:00,
2013-07-21 19:43:00,82.0,67.0,-100.00,East,90,4.0,-999.0,61,-99.99,,,-99.99,215.759995,,2013-07-21 23:43:00,
2013-07-21 19:53:00,82.0,67.0,-100.00,East,90,4.0,-999.0,61,-99.99,,,-99.99,215.759995,,2013-07-21 23:53:00,
2013-07-21 20:00:00,80.0,68.0,-100.00,ESE,112,2.0,-999.0,65,-99.99,,,-99.99,42.919998,,2013-07-22 00:00:00,
2013-07-21 20:42:00,80.0,68.0,-100.00,ESE,112,2.0,-999.0,65,-99.99,,,-99.99,42.919998,,2013-07-22 00:42:00,
2013-07-21 20:53:00,80.0,68.0,-100.00,ESE,112,2.0,-999.0,65,-99.99,,,-99.99,42.919998,,2013-07-22 00:53:00,
2013-07-21 21:00:00,77.0,70.0,-100.00,East,90,1.0,-999.0,76,-99.99,,,-99.99,11.600000,,2013-07-22 01:00:00,
2013-07-21 21:32:00,77.0,70.0,-100.00,East,90,1.0,-999.0,76,-99.99,,,-99.99,11.600000,,2013-07-22 01:32:00,
2013-07-21 21:42:00,77.0,70.0,-100.00,East,90,1.0,-999.0,76,-99.99,,,-99.99,11.600000,,2013-07-22 01:42:00,
2013-07-21 21:52:00,77.0,70.0,-100.00,East,90,1.0,-999.0,76,-99.99,,,-99.99,11.600000,,2013-07-22 01:52:00,
2013-07-21 22:00:00,74.0,70.0,-100.00,ESE,112,0.0,-999.0,87,-99.99,,,-99.99,1.160000,,2013-07-22 02:00:00,
2013-07-21 22:32:00,74.0,70.0,-100.00,ESE,112,0.0,-999.0,87,-99.99,,,-99.99,1.160000,,2013-07-22 02:32:00,
2013-07-21 22:43:00,74.0,70.0,-100.00,ESE,112,0.0,-999.0,87,-99.99,,,-99.99,1.160000,,2013-07-22 02:43:00,
2013-07-21 22:52:00,74.0,70.0,-100.00,ESE,112,0.0,-999.0,87,-99.99,,,-99.99,1.160000,,2013-07-22 02:52:00,
2013-07-21 23:00:00,74.0,70.0,-100.00,ENE,67,0.0,-999.0,87,-99.99,,,-99.99,0.000000,,2013-07-22 03:00:00,
2013-07-21 23:43:00,74.0,70.0,-100.00,ENE,67,0.0,-999.0,87,-99.99,,,-99.99,0.000000,,2013-07-22 03:43:00,
2013-07-21 23:53:00,74.0,70.0,-100.00,ENE,67,0.0,-999.0,87,-99.99,,,-99.99,0.000000,,2013-07-22 03:53:00,